Regional Weather Roundup
Issued by NWS Bismarck, ND

Home | Current Version | Previous Version | Text Only | Print | Product List | Glossary On
Versions: 1 2 3 4 5 6 7 8 9 10 11 12 13 14 15 16 17 18 19 20 21 22 23 24 25 26 27 28 29 30 31 32 33 34 35 36 37 38 39 40 41 42 43 44 45 46 47 48 49 50
000
ASUS43 KBIS 061120
RWRBIS

NWR BROADCAST TEXT
NATIONAL WEATHER SERVICE BISMARCK ND
500 AM CST FRI MAR 06 2015

NOTE: "FAIR" INDICATES FEW OR NO CLOUDS BELOW 12,000 FEET WITH NO
SIGNIFICANT WEATHER AND/OR OBSTRUCTIONS TO VISIBILITY.


CITY           SKY/WX    TMP DP  RH WIND       PRES   REMARKS
WILLISTON      PTCLDY    16  12  84 CALM      30.06S
MINOT          CLEAR     19  12  74 W12       30.03R WCI   7
MINOT AFB      CLEAR     16  14  90 W14       30.02R WCI   2
BISMARCK       CLEAR     17  12  80 W3        30.06S
DICKINSON      CLEAR     21  13  71 W7        30.02S WCI  12
GARRISON         N/A     17  12  80 NW10      30.04R WCI   5
HETTINGER ARPT CLEAR     21  12  68 CALM      30.06R
JAMESTOWN      CLEAR     17  11  77 NW12      30.00R WCI   4
BEACH          FAIR      19  16  86 CALM      30.06S
CARRINGTON     FAIR      14  14 100 MISG      30.03R
CROSBY         FAIR      16  12  86 SW6       30.04S WCI   7
HARVEY         FAIR      16  12  86 W12       30.03R WCI   3
HAZEN          FAIR      18  14  86 NW5       30.07S WCI  11
LINTON         FAIR      18  14  86 NW7       30.04S WCI   8
MANDAN         FAIR      19  16  86 NW6       30.05S WCI  11
OAKES            N/A     12   9  85 SW3       30.03R
RUGBY          FAIR       9   5  85 NW5       30.01S WCI   0
TIOGA          FAIR       9   9 100 W3        30.06S
WATFORD CITY   FAIR      14  10  85 W5        30.04S WCI   6
$$

CITY           SKY/WX    TMP DP  RH WIND       PRES   REMARKS
GRAND FORKS    CLEAR     11   6  81 NW8       29.99R WCI  -1
GRAND FORKS AF CLEAR     15   8  73 NW8       29.99R WCI   4
DEVILS LAKE    CLEAR     12   7  79 NW7       30.00R WCI   2
FARGO          CLEAR     14   8  77 W9        29.99R WCI   2
CANDO          FAIR       9   5  85 NW12      30.00R WCI  -6
CAVALIER       FAIR      14   7  73 W10       29.98R WCI   1
GWINNER        SUNNY     16  10  79 W13       30.02R WCI   2
ROLLA          FAIR      18  10  73 NW14      29.97S WCI   4
WALHALLA         N/A     18   9  68 W9        29.98R WCI   6
$$

CITY           SKY/WX    TMP DP  RH WIND       PRES   REMARKS
ABERDEEN       CLEAR     11   6  81 VRB3      30.05R
MOBRIDGE       CLEAR     15  10  80 CALM      30.02R
BUFFALO          N/A     27  14  58 W10       29.99S WCI  17
RAPID CITY     PTCLDY    26  15  63 W3        30.10F
GLASGOW        MOCLDY    25  18  74 CALM      30.04F
SIDNEY         MOCLDY    21  18  86 CALM      30.09S
WOLF POINT     MOCLDY    25  20  81 W3        30.06F
GLENDIVE       CLEAR     23  12  63 SE5       30.07R WCI  17
MILES CITY     MOCLDY    29  18  63 MISG      30.08F
BAKER          CLEAR     22  15  75 CALM      30.06S
$$

CITY           SKY/WX    TMP DP  RH WIND       PRES   REMARKS
BILLINGS       MOCLDY    33  15  47 SW18      30.14F
GREAT FALLS    CLEAR     35  17  47 SW13      30.12F
REGINA         MOCLDY     7   3  85 S5        30.00S WCI  -2
ESTEVAN        MOCLDY     7   3  85 W7        30.03S WCI  -5
$$



USA.gov is the U.S. government's official web portal to all federal, state and local government web resources and services.